{"data":{"norad_id":62560,"intl_designator":"2025-006G","name":"STARLINK-11519 [DTC]","alt_names":[],"object_type":"PAYLOAD","status":"ACTIVE","operator":null,"country":"US","launch_date":"2025-01-10","launch_site_code":"AFETR","launch_vehicle":null,"mission":null,"orbit_class":"UNKNOWN","rcs_meters":null,"size_class":null,"mass_kg":null,"dimensions":null,"purposes":["comms"],"wikipedia_slug":null,"has_3d_model":false,"image_url":null,"decayed_at":null,"tle_current":{"epoch":"2026-05-24T18:30:49.863744Z","epoch_age_seconds":90968,"freshness":"FRESH","line1":"1 62560U 25006G   26144.77141046  .00162216  00000+0  12343-2 0  9991","line2":"2 62560  42.9999  41.6880 0005626 290.0576  69.9686 15.70995030 78567","mean_motion":15.7099503,"eccentricity":0.0005626,"inclination_deg":42.9999,"raan_deg":41.688,"arg_perigee_deg":290.0576,"mean_anomaly_deg":69.9686,"bstar":0.0012343,"rev_number":7856,"period_min":91.661652169581,"perigee_km":352.26333852597,"apogee_km":359.84064798118,"semimajor_km":6734.1889932536,"source":"CELESTRAK","updated_at":"2026-05-25T13:38:19.707762Z"}}}